{"data":{"norad_id":54130,"intl_designator":"2022-138T","name":"ONEWEB-0512","alt_names":[],"object_type":"PAYLOAD","status":"ACTIVE","operator":null,"country":"UK","launch_date":"2022-10-22","launch_site_code":"SRILR","launch_vehicle":null,"mission":null,"orbit_class":"UNKNOWN","rcs_meters":null,"size_class":null,"mass_kg":null,"dimensions":null,"purposes":["comms"],"wikipedia_slug":null,"has_3d_model":false,"image_url":null,"decayed_at":null,"tle_current":{"epoch":"2026-09-19T09:31:37.309440Z","epoch_age_seconds":122443,"freshness":"FRESH","line1":"1 54130U 22138T   26262.39695960  .00000112  00000+0  24721-3 0  9996","line2":"2 54130  87.9109 286.2004 0002109  84.1198 276.0175 13.19724137189233","mean_motion":13.19724137,"eccentricity":0.0002109,"inclination_deg":87.9109,"raan_deg":286.2004,"arg_perigee_deg":84.1198,"mean_anomaly_deg":276.0175,"bstar":0.00024721,"rev_number":18923,"period_min":109.11371245156,"perigee_km":1184.1786206824,"apogee_km":1187.3690782787,"semimajor_km":7563.9108494806,"source":"CELESTRAK","updated_at":"2026-09-20T09:00:44.718663Z"}}}